sat.trackr.live / text

‹ back to catalog

STARLINK-32114

NORAD 60287 · 2024-132K

PAYLOAD ACTIVE UNKNOWN

§ Identity

Operator
Country
US
Launch date
2024-07-28
Launch site
AFETR
Launch vehicle
Mass (kg)
RCS (m²)

Purposes: comms

External: N2YO · Heavens-Above · Gunter

§ Orbital elements

Epoch: 2026-09-21T07:10:53.815872Z

Period
94.01 min
Inclination
53.1576°
Eccentricity
0.0001422
Mean motion
15.31718834 rev/d
Perigee alt
469.7 km
Apogee alt
471.7 km
Semi-major
6,848.8 km
B*
8.0348e-5
RAAN
222.8138°
Arg perigee
74.3131°
Mean anomaly
285.8027°
Rev number
12,152

§ Raw data

STARLINK-321141 60287U 24132K   26264.29923398  .00002130  00000+0  80348-4 0  99922 60287  53.1576 222.8138 0001422  74.3131 285.8027 15.31718834121520

JSON: /api/v1/satellites/60287 · /tle

For live sub-satellite position, see the globe view (requires WebGL).

§ Visibility from observer

Set your observer location to see the next 7 days of passes ≥ 10°. The values pass through the URL so the page stays shareable.

No JS? Fill the form by hand. The geolocation button needs JavaScript.